sat.trackr.live / text

‹ back to catalog

STARLINK-30278

NORAD 57668 · 2023-124F

PAYLOAD ACTIVE UNKNOWN

§ Identity

Operator
Country
US
Launch date
2023-08-22
Launch site
AFWTR
Launch vehicle
Mass (kg)
RCS (m²)

Purposes: comms

External: N2YO · Heavens-Above · Gunter

§ Orbital elements

Epoch: 2026-05-25T04:23:05.760384Z

Period
94.11 min
Inclination
53.1598°
Eccentricity
0.0001197
Mean motion
15.30194492 rev/d
Perigee alt
474.4 km
Apogee alt
476.1 km
Semi-major
6,853.4 km
B*
4.1399e-5
RAAN
211.7375°
Arg perigee
83.3509°
Mean anomaly
276.7628°
Rev number
15,527

§ Raw data

STARLINK-302781 57668U 23124F   26145.18270556  .00000867  00000+0  41399-4 0  99962 57668  53.1598 211.7375 0001197  83.3509 276.7628 15.30194492155273

JSON: /api/v1/satellites/57668 · /tle

For live sub-satellite position, see the globe view (requires WebGL).

§ Visibility from observer

Set your observer location to see the next 7 days of passes ≥ 10°. The values pass through the URL so the page stays shareable.

No JS? Fill the form by hand. The geolocation button needs JavaScript.